Terug naar catalogus

COSMOS 2010

ActiefMilitairLEO
NORAD 19904·PAYLOAD·🇷🇺 Russia

Gelanceerd Mar 24, 1989 vanaf Plesetsk Cosmodrome

Loading…

Volgende Passages (komende 24 uur)

TLE

VersSource: Space-Track

Epoch: Sep 14, 2026, 09:37 UTC

1 19904U 89025C   26257.40128617 -.00000027  00000-0 -64414-4 0  9992
2 19904  74.0102  48.0860 0031041 287.3283 100.6656 12.54074438629141

Volg COSMOS 2010 in realtime met AllMySat

Download on the App Store